Total_Precipitation_Accumulation
0.36 0.74 1.00 0.88 0.81 0.80 0.76 0.75 0.77 0.65 0.59 0.61 0.56 0.50 0.55 0.58 0.62 0.56 0.57 0.56 0.47 0.42 0.45 0.43 0.38 0.41 0.45 0.58 0.69 0.87 1.26 1.70 1.88 1.78 1.75 1.80 1.84 1.78 1.68 1.64 1.61 1.65 1.65 1.65
0.43 0.53 0.42 0.45 0.51 0.63 0.71 0.76 0.78 0.68 0.50 0.49 0.49 0.44 0.44 0.50 0.51 0.48 0.45 0.48 0.43 0.39 0.36 0.34 0.32 0.36 0.40 0.58 0.76 0.89 1.19 1.64 1.84 1.97 2.08 2.27 2.42 2.28 2.14 2.12 2.07 2.13 2.14 2.29
0.36 0.32 0.25 0.36 0.55 0.67 0.71 0.73 0.72 0.65 0.51 0.46 0.45 0.47 0.42 0.47 0.41 0.39 0.39 0.40 0.36 0.30 0.29 0.30 0.30 0.35 0.39 0.52 0.68 0.83 1.04 1.34 1.67 1.93 2.19 2.47 2.68 2.65 2.53 2.36 2.32 2.38 2.43 2.58
0.35 0.28 0.29 0.37 0.46 0.58 0.74 0.50 0.46 0.46 0.60 0.61 0.46 0.70 0.50 0.48 0.44 0.39 0.39 0.38 0.36 0.31 0.30 0.33 0.32 0.35 0.39 0.47 0.59 0.77 0.99 1.22 1.45 1.67 2.07 2.50 2.78 2.88 2.78 2.68 2.63 2.59 2.60 2.65
0.32 0.26 0.29 0.34 0.35 0.43 0.56 0.43 0.43 0.45 0.55 0.51 0.36 0.51 0.50 0.41 0.43 0.38 0.35 0.33 0.33 0.31 0.32 0.36 0.37 0.41 0.48 0.52 0.59 0.75 0.92 1.14 1.37 1.59 1.94 2.33 2.58 2.79 2.92 2.74 2.61 2.63 2.66 2.68
0.27 0.21 0.22 0.28 0.32 0.35 0.44 0.48 0.46 0.49 0.56 0.61 0.30 0.43 0.55 0.38 0.35 0.35 0.31 0.28 0.29 0.33 0.38 0.43 0.53 0.59 0.62 0.59 0.64 0.76 0.89 1.06 1.21 1.33 1.54 1.76 2.10 2.32 2.64 2.63 2.57 2.69 2.66 2.57
0.32 0.27 0.22 0.24 0.32 0.35 0.42 0.66 0.87 0.89 0.86 0.57 0.23 0.39 0.54 0.39 0.31 0.32 0.32 0.30 0.30 0.35 0.41 0.50 0.65 0.74 0.78 0.70 0.67 0.73 0.91 0.99 1.08 1.17 1.24 1.36 1.60 1.74 2.10 2.41 2.39 2.30 2.35 2.40
0.36 0.37 0.22 0.22 0.28 0.33 0.35 0.57 0.91 1.05 0.92 0.59 0.39 0.56 0.60 0.45 0.36 0.32 0.31 0.33 0.38 0.42 0.49 0.67 0.85 0.91 0.91 0.83 0.77 0.83 0.99 1.06 1.09 1.13 1.14 1.21 1.30 1.36 1.53 1.74 1.85 1.86 1.90 2.12
0.36 0.33 0.20 0.21 0.21 0.23 0.31 0.38 0.44 0.64 0.61 0.65 0.60 0.68 0.61 0.41 0.39 0.38 0.40 0.46 0.56 0.65 0.70 0.84 1.00 1.08 1.00 0.90 0.83 0.89 1.02 1.16 1.18 1.20 1.23 1.30 1.29 1.25 1.33 1.35 1.47 1.64 1.66 1.71
0.38 0.36 0.24 0.22 0.24 0.23 0.23 0.30 0.45 0.68 0.89 0.92 0.74 0.74 0.72 0.60 0.55 0.51 0.55 0.61 0.73 0.83 0.91 1.00 1.14 1.19 1.08 0.96 0.88 0.92 1.03 1.16 1.35 1.46 1.39 1.35 1.40 1.42 1.61 1.63 1.47 1.42 1.56 1.62
0.49 0.50 0.31 0.27 0.25 0.25 0.27 0.37 0.52 0.71 0.74 1.02 1.16 1.05 0.81 0.73 0.72 0.75 0.79 0.83 0.89 1.01 1.02 1.02 1.13 1.20 1.11 0.94 0.88 0.87 0.92 1.04 1.18 1.21 1.25 1.22 1.30 1.40 1.65 1.84 1.79 1.59 1.55 1.56
0.47 0.64 0.46 0.31 0.28 0.29 0.36 0.47 0.69 1.06 1.01 0.92 1.13 1.12 0.79 0.72 0.77 0.78 0.79 0.78 0.82 0.92 0.92 0.97 1.02 0.99 0.91 0.78 0.72 0.72 0.75 0.86 1.01 1.01 1.06 1.14 1.15 1.26 1.37 1.49 1.52 1.44 1.31 1.27
0.62 0.85 0.83 0.68 0.62 0.48 0.55 0.57 0.65 0.85 0.98 1.01 1.16 1.12 0.75 0.68 0.64 0.65 0.68 0.71 0.73 0.73 0.72 0.73 0.77 0.75 0.74 0.75 0.73 0.69 0.70 0.79 0.88 0.94 1.02 1.12 1.11 1.10 1.11 1.15 1.11 1.13 1.11 1.15
0.64 0.72 0.80 0.86 0.81 0.74 0.72 0.61 0.57 0.80 1.09 0.99 0.94 0.89 0.72 0.64 0.60 0.63 0.64 0.66 0.68 0.61 0.54 0.55 0.58 0.62 0.69 0.72 0.74 0.71 0.66 0.74 0.85 1.02 1.11 1.17 1.18 1.18 1.17 1.14 1.11 1.12 1.12 1.15
0.54 0.54 0.42 0.38 0.40 0.53 0.56 0.48 0.48 0.58 0.68 0.85 0.79 0.74 0.61 0.58 0.64 0.67 0.65 0.60 0.57 0.50 0.43 0.44 0.46 0.52 0.55 0.59 0.62 0.66 0.63 0.67 0.76 0.90 1.03 1.10 1.18 1.24 1.17 1.07 1.02 1.07 1.06 1.04
0.42 0.47 0.35 0.29 0.28 0.37 0.44 0.43 0.44 0.45 0.49 0.60 0.64 0.63 0.50 0.47 0.47 0.49 0.47 0.41 0.43 0.44 0.38 0.35 0.38 0.41 0.43 0.45 0.48 0.48 0.56 0.72 0.75 0.81 0.92 1.12 1.20 1.13 1.08 0.98 0.96 0.97 0.95 0.95
0.39 0.50 0.57 0.44 0.34 0.39 0.62 0.58 0.58 0.60 0.54 0.55 0.49 0.39 0.26 0.26 0.29 0.34 0.35 0.34 0.38 0.37 0.33 0.30 0.32 0.34 0.35 0.39 0.46 0.50 0.57 0.69 0.73 0.77 0.91 1.12 1.15 1.06 0.99 1.03 1.04 0.98 0.95 0.97
0.33 0.51 0.71 0.55 0.54 0.86 0.95 0.66 0.64 0.61 0.41 0.27 0.21 0.18 0.17 0.23 0.22 0.21 0.23 0.26 0.29 0.29 0.26 0.26 0.27 0.28 0.29 0.32 0.39 0.45 0.51 0.56 0.61 0.68 0.80 0.97 1.02 1.01 1.03 1.03 1.00 0.92 0.85 0.86
0.32 0.54 0.79 0.67 0.68 0.81 0.73 0.48 0.41 0.43 0.31 0.15 0.13 0.14 0.15 0.17 0.17 0.14 0.15 0.16 0.17 0.18 0.16 0.16 0.19 0.23 0.24 0.23 0.26 0.31 0.35 0.40 0.45 0.55 0.67 0.77 0.80 0.87 0.90 0.87 0.90 0.85 0.77 0.77
0.45 0.60 0.89 0.81 0.92 0.87 0.47 0.28 0.26 0.35 0.46 0.19 0.14 0.14 0.11 0.12 0.17 0.12 0.09 0.10 0.10 0.11 0.10 0.09 0.11 0.17 0.21 0.19 0.20 0.22 0.28 0.33 0.37 0.47 0.58 0.67 0.69 0.71 0.75 0.81 0.84 0.85 0.79 0.75
0.49 0.63 0.76 0.79 0.99 0.80 0.39 0.26 0.28 0.49 0.57 0.28 0.19 0.15 0.12 0.10 0.11 0.09 0.09 0.08 0.08 0.08 0.08 0.08 0.09 0.15 0.19 0.20 0.18 0.16 0.21 0.26 0.31 0.37 0.48 0.55 0.59 0.66 0.76 0.84 0.86 0.90 0.87 0.82
0.60 0.65 0.64 0.73 0.93 0.85 0.41 0.37 0.46 0.48 0.36 0.27 0.22 0.18 0.13 0.09 0.07 0.06 0.07 0.07 0.08 0.08 0.08 0.08 0.09 0.15 0.18 0.19 0.18 0.16 0.18 0.23 0.26 0.27 0.35 0.48 0.57 0.64 0.73 0.84 0.89 0.88 0.89 0.90
0.62 0.67 0.71 0.80 0.91 0.63 0.43 0.46 0.44 0.37 0.34 0.24 0.17 0.15 0.13 0.10 0.07 0.05 0.06 0.07 0.08 0.09 0.08 0.08 0.11 0.15 0.13 0.15 0.16 0.17 0.18 0.20 0.20 0.22 0.27 0.35 0.42 0.47 0.56 0.67 0.78 0.83 0.84 0.85
0.48 0.45 0.55 0.65 0.57 0.38 0.35 0.37 0.32 0.30 0.26 0.20 0.16 0.13 0.12 0.10 0.08 0.06 0.05 0.06 0.07 0.08 0.08 0.10 0.13 0.15 0.14 0.14 0.15 0.17 0.18 0.18 0.19 0.23 0.26 0.28 0.31 0.34 0.40 0.55 0.62 0.67 0.73 0.78
0.42 0.48 0.55 0.62 0.56 0.41 0.33 0.32 0.29 0.26 0.20 0.17 0.19 0.18 0.16 0.14 0.11 0.08 0.07 0.06 0.06 0.06 0.06 0.08 0.11 0.14 0.15 0.14 0.14 0.17 0.17 0.18 0.20 0.22 0.24 0.25 0.27 0.30 0.35 0.43 0.57 0.65 0.70 0.76
0.33 0.44 0.60 0.67 0.58 0.53 0.37 0.30 0.25 0.22 0.18 0.16 0.16 0.18 0.20 0.21 0.18 0.12 0.09 0.07 0.08 0.08 0.09 0.10 0.11 0.12 0.14 0.14 0.13 0.16 0.18 0.20 0.25 0.28 0.26 0.27 0.29 0.32 0.35 0.41 0.50 0.58 0.59 0.61